Weather in Atakum

Turkey     41°19′57″N   36°08′57″E
temp.,
°C
wind,
m/s
gust,
m/s
humid.,
%
clouds,
%
prec.,
mm/h
press.,
hPa
HPBL,
m
26 october, tue
tue2600:00+8se117865 0.3 103047
03:00+7ssw117757 0.4 102945
06:00+7ssw118039 0.1 102926
09:00+9ese126857 0.3 1029300
12:00+11ene335628 0.0 10281177
15:00+11ne236683 0.1 1026983
18:00+9e346855 0.0 1026318
21:00+9ese247051 0.1 1026384
27 october, wed
wed2700:00+7s127711 0.0 102599
03:00+6sw22812 0.0 102534
06:00+5sw33820 0.0 102439
09:00+9sw22600 0.0 1024156
12:00+14e12450 0.0 1022674
15:00+13ne32610 0.0 1022570
18:00+9ne118816 0.0 102474
21:00+8w118925 0.0 102584
28 october, thu
thu2800:00+8wsw218821 0.0 102533
03:00+8wsw228735 0.0 102532
06:00+9wsw128498 0.0 1026107
09:00+10nw018383 0.1 1027211
12:00+12ne227178 0.2 1026741
15:00+12ne227279 0.3 1025574
18:00+11ene127187 0.1 1026172
21:00+11ene1168100 0.1 1026144
29 october, fri
fri2900:00+8ssw117885 0.0 1025115
03:00+7sw118130 0.0 102627
06:00+7sw118027 0.0 102619
09:00+10sw11722 0.0 1027152
12:00+13ene22591 0.0 1026837
15:00+13ne33591 0.0 1025802
18:00+9ene228147 0.0 1027130
21:00+10e227475 0.0 1027165
30 october, sat
sat3000:00+9ese117618 0.0 1027119
03:00+7wsw11831 0.0 1027108
06:00+7sw11855 0.0 102837
09:00+10sw11752 0.0 1028215
12:00+13ene22570 0.0 1027752
15:00+13ne33580 0.0 1026766
18:00+9ene11830 0.0 102724
21:00+8sw11840 0.0 102722